Location: Aurora Center
(43.5271°N, 98.5894°W)
Time: 00:32:40
(UTC-05:00)

BlueWalker 3 - Pass Details

Date: 23 June 2024
Orbit: 480 x 492 km, 53.2° (Epoch: 15 July)

Event Time Altitude Azimuth Distance (km) Brightness Sun altitude
Rises 22:31:58 0° 268° (W) 2,538 6.2 -10.8°
Reaches altitude 10° 22:34:23 10° 281° (W) 1,658 5.4 -11.1°
Maximum altitude 22:37:36 27° 341° (NNW) 962 4.2 -11.4°
Drops below altitude 10° 22:40:50 10° 40° (NE) 1,659 4.7 -11.8°
Sets 22:43:14 0° 53° (NE) 2,539 5.5 -12.1°
